Orbital Elements at Epoch 2459200.5 (2020-Dec-17.0) TDB
Reference: JPL 21 (heliocentric ecliptic J2000)
Element | Value | Uncertainty (1-sigma) | Units |
e | .197867074368411 | 4.2332e-08 | |
a | 2.739247381684883 | 1.6536e-08 | au |
q | 2.197240516299565 | 1.1882e-07 | au |
i | 3.945386073826671 | 4.2227e-06 | deg |
node | 145.2174160284527 | 6.8538e-05 | deg |
peri | 259.6185379773128 | 6.9395e-05 | deg |
M | 219.5549836860137 | 1.3363e-05 | deg |
tp | 2459846.524727869912 (2022-Sep-24.02472787) | 6.5077e-05 | TDB |
period | 1655.942717919054 4.53 | 1.4994e-05 4.105e-08 | d yr |
n | .2173988243098139 | 1.9685e-09 | deg/d |
Q | 3.281254247070201 | 1.9808e-08 | au |
|
| | Orbit Determination Parameters
Additional Information
|